timestamp,wind_dir_avg,wind_spd_max_dir,wind_spd_avg,wind_spd_gust,battery_voltage,lat,long
2017-12-27 00:00:00+00:00,274.0,275.0,15.32,17.47,,47.59359,-54.27349
2017-12-27 00:10:00+00:00,259.0,258.0,16.87,19.29,,47.59359,-54.27349
2017-12-27 00:20:00+00:00,262.0,259.0,16.46,19.34,,47.59359,-54.27349
2017-12-27 00:30:00+00:00,265.0,266.0,14.16,16.64,,47.59359,-54.27349
2017-12-27 00:40:00+00:00,266.0,266.0,17.56,20.24,,47.59359,-54.27349
2017-12-27 00:50:00+00:00,265.0,259.0,18.22,21.4,,47.59359,-54.27349
2017-12-27 01:00:00+00:00,264.0,267.0,18.23,22.4,,47.59359,-54.27349
2017-12-27 01:10:00+00:00,266.0,264.0,15.99,19.56,,47.59359,-54.27349
2017-12-27 01:20:00+00:00,272.0,270.0,16.64,18.32,,47.59359,-54.27349
2017-12-27 01:30:00+00:00,270.0,270.0,15.68,18.1,,47.59359,-54.27349
2017-12-27 01:40:00+00:00,271.0,271.0,16.31,18.39,,47.59359,-54.27349
2017-12-27 01:50:00+00:00,265.0,270.0,14.65,17.31,,47.59359,-54.27349
2017-12-27 02:00:00+00:00,269.0,264.0,15.89,18.3,,47.59359,-54.27349
2017-12-27 02:10:00+00:00,260.0,257.0,16.3,20.0,,47.59359,-54.27349
2017-12-27 02:20:00+00:00,260.0,256.0,14.42,17.59,,47.59359,-54.27349
2017-12-27 02:30:00+00:00,271.0,271.0,18.34,21.03,,47.59359,-54.27349
2017-12-27 02:40:00+00:00,273.0,275.0,16.42,19.44,,47.59359,-54.27349
2017-12-27 02:50:00+00:00,272.0,281.0,16.09,18.06,,47.59359,-54.27349
2017-12-27 03:00:00+00:00,271.0,272.0,14.84,18.77,,47.59359,-54.27349
2017-12-27 03:10:00+00:00,279.0,278.0,14.17,17.35,,47.59359,-54.27349
2017-12-27 03:20:00+00:00,279.0,276.0,15.85,19.82,,47.59359,-54.27349
2017-12-27 03:30:00+00:00,270.0,268.0,14.24,17.74,,47.59359,-54.27349
2017-12-27 03:40:00+00:00,271.0,277.0,14.85,17.14,,47.59359,-54.27349
2017-12-27 03:50:00+00:00,275.0,271.0,15.87,18.48,,47.59359,-54.27349
2017-12-27 04:00:00+00:00,278.0,279.0,14.86,17.45,,47.59359,-54.27349
2017-12-27 04:10:00+00:00,270.0,270.0,16.2,19.64,,47.59359,-54.27349
2017-12-27 04:20:00+00:00,269.0,271.0,16.56,19.0,,47.59359,-54.27349
2017-12-27 04:30:00+00:00,269.0,264.0,15.27,18.2,,47.59359,-54.27349
2017-12-27 04:40:00+00:00,267.0,268.0,15.34,17.37,,47.59359,-54.27349
2017-12-27 04:50:00+00:00,265.0,262.0,15.26,18.37,,47.59359,-54.27349
2017-12-27 05:00:00+00:00,266.0,261.0,12.92,15.16,,47.59359,-54.27349
2017-12-27 05:10:00+00:00,267.0,263.0,13.48,15.69,,47.59359,-54.27349
2017-12-27 05:20:00+00:00,262.0,261.0,12.68,18.2,,47.59359,-54.27349
2017-12-27 05:30:00+00:00,263.0,261.0,13.54,17.36,,47.59359,-54.27349
2017-12-27 05:40:00+00:00,273.0,276.0,16.86,19.65,,47.59359,-54.27349
2017-12-27 05:50:00+00:00,259.0,265.0,16.35,19.81,,47.59359,-54.27349
2017-12-27 06:00:00+00:00,265.0,268.0,16.34,18.75,,47.59359,-54.27349
2017-12-27 06:10:00+00:00,263.0,262.0,14.5,18.95,,47.59359,-54.27349
2017-12-27 06:20:00+00:00,276.0,275.0,13.03,18.98,,47.59359,-54.27349
2017-12-27 06:30:00+00:00,262.0,261.0,15.44,17.26,,47.59359,-54.27349
2017-12-27 06:40:00+00:00,266.0,267.0,15.57,18.75,,47.59359,-54.27349
2017-12-27 06:50:00+00:00,268.0,270.0,17.6,20.52,,47.59359,-54.27349
2017-12-27 07:00:00+00:00,263.0,266.0,17.16,23.26,,47.59359,-54.27349
2017-12-27 07:10:00+00:00,265.0,264.0,16.73,19.71,,47.59359,-54.27349
2017-12-27 07:20:00+00:00,267.0,263.0,17.52,20.49,,47.59359,-54.27349
2017-12-27 07:30:00+00:00,272.0,268.0,18.43,21.23,,47.59359,-54.27349
2017-12-27 07:40:00+00:00,271.0,278.0,15.19,17.99,,47.59359,-54.27349
2017-12-27 07:50:00+00:00,269.0,271.0,16.68,19.23,,47.59359,-54.27349
2017-12-27 08:00:00+00:00,263.0,251.0,18.86,21.84,,47.59359,-54.27349
2017-12-27 08:10:00+00:00,257.0,259.0,17.95,20.35,,47.59359,-54.27349
2017-12-27 08:20:00+00:00,257.0,260.0,16.88,19.58,,47.59359,-54.27349
2017-12-27 08:30:00+00:00,264.0,266.0,16.95,21.75,,47.59359,-54.27349
2017-12-27 08:40:00+00:00,266.0,260.0,16.1,20.41,,47.59359,-54.27349
2017-12-27 08:50:00+00:00,272.0,266.0,15.72,17.76,,47.59359,-54.27349
2017-12-27 09:00:00+00:00,263.0,271.0,16.7,20.21,,47.59359,-54.27349
2017-12-27 09:10:00+00:00,262.0,262.0,16.28,19.06,,47.59359,-54.27349
2017-12-27 09:20:00+00:00,275.0,268.0,15.73,17.82,,47.59359,-54.27349
2017-12-27 09:30:00+00:00,265.0,263.0,17.36,20.69,,47.59359,-54.27349
2017-12-27 09:40:00+00:00,270.0,271.0,18.57,21.65,,47.59359,-54.27349
2017-12-27 09:50:00+00:00,267.0,265.0,17.36,21.59,,47.59359,-54.27349
2017-12-27 10:00:00+00:00,263.0,265.0,17.95,20.74,,47.59359,-54.27349
2017-12-27 10:10:00+00:00,259.0,262.0,20.36,23.15,,47.59359,-54.27349
2017-12-27 10:20:00+00:00,262.0,259.0,16.49,19.35,,47.59359,-54.27349
2017-12-27 10:30:00+00:00,265.0,265.0,19.02,23.4,,47.59359,-54.27349
2017-12-27 10:40:00+00:00,257.0,256.0,16.14,18.23,,47.59359,-54.27349
2017-12-27 10:50:00+00:00,259.0,253.0,16.66,20.55,,47.59359,-54.27349
2017-12-27 11:00:00+00:00,262.0,259.0,19.25,21.74,,47.59359,-54.27349
2017-12-27 11:10:00+00:00,273.0,277.0,17.16,19.61,,47.59359,-54.27349
2017-12-27 11:20:00+00:00,279.0,283.0,17.96,21.71,,47.59359,-54.27349
2017-12-27 11:30:00+00:00,262.0,254.0,16.75,22.54,,47.59359,-54.27349
2017-12-27 11:40:00+00:00,272.0,282.0,15.56,17.26,,47.59359,-54.27349
2017-12-27 11:50:00+00:00,266.0,253.0,17.88,22.0,,47.59359,-54.27349
2017-12-27 12:00:00+00:00,264.0,260.0,16.31,20.09,,47.59359,-54.27349
2017-12-27 12:10:00+00:00,275.0,275.0,15.73,21.04,,47.59359,-54.27349
2017-12-27 12:20:00+00:00,277.0,287.0,16.71,22.99,,47.59359,-54.27349
2017-12-27 12:30:00+00:00,260.0,267.0,17.13,21.58,,47.59359,-54.27349
2017-12-27 12:40:00+00:00,261.0,258.0,15.88,21.08,,47.59359,-54.27349
2017-12-27 12:50:00+00:00,267.0,273.0,15.74,21.24,,47.59359,-54.27349
2017-12-27 13:00:00+00:00,272.0,273.0,15.52,20.73,,47.59359,-54.27349
2017-12-27 13:10:00+00:00,271.0,264.0,15.38,19.74,,47.59359,-54.27349
2017-12-27 13:20:00+00:00,268.0,264.0,16.09,21.01,,47.59359,-54.27349
2017-12-27 13:30:00+00:00,273.0,276.0,15.7,21.13,,47.59359,-54.27349
2017-12-27 13:40:00+00:00,271.0,266.0,15.85,20.01,,47.59359,-54.27349
2017-12-27 13:50:00+00:00,267.0,265.0,15.99,18.74,,47.59359,-54.27349
2017-12-27 14:00:00+00:00,269.0,259.0,19.17,22.66,,47.59359,-54.27349
2017-12-27 14:10:00+00:00,259.0,258.0,20.91,23.84,,47.59359,-54.27349
2017-12-27 14:20:00+00:00,263.0,261.0,18.91,22.06,,47.59359,-54.27349
2017-12-27 14:30:00+00:00,259.0,259.0,18.25,22.59,,47.59359,-54.27349
2017-12-27 14:40:00+00:00,266.0,258.0,19.62,22.72,,47.59359,-54.27349
2017-12-27 14:50:00+00:00,277.0,280.0,19.27,22.32,,47.59359,-54.27349
2017-12-27 15:00:00+00:00,264.0,262.0,18.93,22.58,,47.59359,-54.27349
2017-12-27 15:10:00+00:00,272.0,268.0,15.24,19.78,,47.59359,-54.27349
2017-12-27 15:20:00+00:00,274.0,286.0,20.98,23.55,,47.59359,-54.27349
2017-12-27 15:30:00+00:00,268.0,270.0,17.45,21.53,,47.59359,-54.27349
2017-12-27 15:40:00+00:00,263.0,267.0,18.7,21.38,,47.59359,-54.27349
2017-12-27 15:50:00+00:00,266.0,262.0,16.67,20.79,,47.59359,-54.27349
2017-12-27 16:00:00+00:00,261.0,261.0,17.59,20.55,,47.59359,-54.27349
2017-12-27 16:10:00+00:00,272.0,272.0,19.05,22.38,,47.59359,-54.27349
2017-12-27 16:20:00+00:00,268.0,268.0,17.15,21.73,,47.59359,-54.27349
2017-12-27 16:30:00+00:00,268.0,275.0,16.71,20.29,,47.59359,-54.27349
2017-12-27 16:40:00+00:00,262.0,255.0,15.7,20.75,,47.59359,-54.27349
2017-12-27 16:50:00+00:00,257.0,255.0,18.54,21.78,,47.59359,-54.27349
2017-12-27 17:00:00+00:00,267.0,264.0,18.39,22.86,,47.59359,-54.27349
2017-12-27 17:10:00+00:00,272.0,260.0,16.74,20.85,,47.59359,-54.27349
2017-12-27 17:20:00+00:00,271.0,262.0,17.61,21.78,,47.59359,-54.27349
2017-12-27 17:30:00+00:00,262.0,254.0,16.32,19.13,,47.59359,-54.27349
2017-12-27 17:40:00+00:00,264.0,255.0,17.35,20.66,,47.59359,-54.27349
2017-12-27 17:50:00+00:00,268.0,264.0,17.91,21.11,,47.59359,-54.27349
2017-12-27 18:00:00+00:00,271.0,284.0,18.55,22.83,,47.59359,-54.27349
2017-12-27 18:10:00+00:00,273.0,269.0,21.2,26.01,,47.59359,-54.27349
2017-12-27 18:20:00+00:00,271.0,271.0,18.46,22.71,,47.59359,-54.27349
2017-12-27 18:30:00+00:00,270.0,273.0,18.56,22.19,,47.59359,-54.27349
2017-12-27 18:40:00+00:00,278.0,281.0,18.75,22.34,,47.59359,-54.27349
2017-12-27 18:50:00+00:00,274.0,275.0,20.54,26.56,,47.59359,-54.27349
2017-12-27 19:00:00+00:00,267.0,266.0,19.77,24.56,,47.59359,-54.27349
2017-12-27 19:10:00+00:00,276.0,280.0,17.15,20.93,,47.59359,-54.27349
2017-12-27 19:20:00+00:00,274.0,275.0,15.98,19.06,,47.59359,-54.27349
2017-12-27 19:30:00+00:00,272.0,271.0,16.4,21.35,,47.59359,-54.27349
2017-12-27 19:40:00+00:00,270.0,273.0,18.75,21.99,,47.59359,-54.27349
2017-12-27 19:50:00+00:00,271.0,268.0,21.63,30.95,,47.59359,-54.27349
2017-12-27 20:00:00+00:00,274.0,270.0,21.67,24.77,,47.59359,-54.27349
2017-12-27 20:10:00+00:00,271.0,268.0,20.73,23.08,,47.59359,-54.27349
2017-12-27 20:20:00+00:00,266.0,267.0,18.07,22.0,,47.59359,-54.27349
2017-12-27 20:30:00+00:00,268.0,271.0,22.2,27.6,,47.59359,-54.27349
2017-12-27 20:40:00+00:00,272.0,278.0,18.88,24.71,,47.59359,-54.27349
2017-12-27 20:50:00+00:00,264.0,257.0,20.84,26.7,,47.59359,-54.27349
2017-12-27 21:00:00+00:00,263.0,270.0,19.57,22.54,,47.59359,-54.27349
2017-12-27 21:10:00+00:00,264.0,265.0,19.45,25.7,,47.59359,-54.27349
2017-12-27 21:20:00+00:00,270.0,273.0,20.05,24.13,,47.59359,-54.27349
2017-12-27 21:30:00+00:00,258.0,247.0,17.18,21.04,,47.59359,-54.27349
2017-12-27 21:40:00+00:00,260.0,261.0,17.82,21.41,,47.59359,-54.27349
2017-12-27 21:50:00+00:00,265.0,275.0,16.94,20.88,,47.59359,-54.27349
2017-12-27 22:00:00+00:00,265.0,260.0,22.07,26.18,,47.59359,-54.27349
2017-12-27 22:10:00+00:00,261.0,270.0,19.75,23.92,,47.59359,-54.27349
2017-12-27 22:20:00+00:00,258.0,252.0,21.78,27.57,,47.59359,-54.27349
2017-12-27 22:30:00+00:00,268.0,266.0,22.26,27.16,,47.59359,-54.27349
2017-12-27 22:40:00+00:00,262.0,260.0,24.38,28.26,,47.59359,-54.27349
2017-12-27 22:50:00+00:00,260.0,257.0,23.47,28.38,,47.59359,-54.27349
2017-12-27 23:00:00+00:00,268.0,266.0,21.95,27.76,,47.59359,-54.27349
2017-12-27 23:10:00+00:00,264.0,264.0,22.89,27.01,,47.59359,-54.27349
2017-12-27 23:20:00+00:00,266.0,267.0,20.21,23.35,,47.59359,-54.27349
2017-12-27 23:30:00+00:00,254.0,249.0,21.05,24.67,,47.59359,-54.27349
2017-12-27 23:40:00+00:00,264.0,258.0,18.28,22.27,,47.59359,-54.27349
2017-12-27 23:50:00+00:00,264.0,248.0,21.09,24.35,,47.59359,-54.27349
